Location: ???????
(52.3000°N, 54.4667°E)
Time: 16:22:30
(UTC+00:00)

Cosmos 1953 Rocket - Pass Details

Date: 24 January 2020
Orbit: 603 x 636 km, 82.5° (Epoch: 25 February)

Event Time Altitude Azimuth Distance (km) Brightness Sun altitude
Rises 14:54:43 0° 191° (S) 2,924 7.3 -18.2°
Reaches altitude 10° 14:56:57 10° 192° (SSW) 2,021 6.4 -18.5°
Maximum altitude 15:01:27 83° 281° (W) 648 3.6 -19.2°
Drops below altitude 10° 15:05:59 10° 10° (N) 2,032 6.0 -19.9°
Enters shadow 15:07:07 - 10° (N) 2,491 6.5 -20.1°
